DECAYED

STARLINK-1979, 47577 (Decayed)

Orbit data source: Space-Track

STARLINK-1979, 47577 was a payload satellite owned by SpaceX/Seattle (US) in LEO that was launched on Thu, 04 Feb 2021 UTC via an FALCON 9 launch vehicle from the Air Force Eastern Test Range (AFETR). Payload-class satellites include a variety of spacecraft equipped with specific instruments for various scientific and technological missions. These include communications satellites like Starlink; space stations such as the ISS; scientific satellites like the Hubble; Earth observation satellites from companies like Planet Labs, Umbra, and HawkEye 360; GPS; miniature CubeSats for education and research; and military/defense satellites.

Not visible in the next 10 days
Identifier
47577, 2021-009AF
Orbit
Decayed
Country
Flag of USUS
Related business
Manufacturer
SpaceX/Seattle
Mission
Decayed Commercial Communications
Bus & Motor
STARLINK, Unknown motor
Mass
260 kg wet, ~248 kg dry
Launch date (UTC)
2021-02-04 (5 years ago)
Launch vehicle
FALCON 9
Launch site
Air Force Eastern Test Range (AFETR)
Object type
Payload
Rocket body
Debris
Shape & HBR
Box + 1 Pan, 10.1 m
Radar Cross Section
13.562 m², Large (>1 m²)

Expand to show TLE details & history
Last TLE update: 5 months ago

TLE from 5 months ago
0 STARLINK-1979
1 47577U 21009AF  26033.26867723  .12365997  12573-4  32808-3 0  9995
2 47577  53.0166 113.8105 0005351 310.6224  49.4358 16.45458104276392
Epoch: 2026-02-02T06:26Z
TLE epoch observation values (Epoch: 2026-02-02T06:26:53.712Z)
Latitude
-0.00008°
Longitude
-115.37975°
Altitude
149.98 km
Speed
7.819 km/s
True Right ascension
07h 35m 14s
True Declination
0° 00' 00"
Sunlit
Object was in full shadow at epoch
Visualization orbit readout
Latitude
Unknown
Longitude
Unknown
Altitude
Unknown
Speed
Unknown
Apparent Right ascension
Unknown
Apparent Declination
Unknown
Sunlit
N/A
Visualization observer readout
Local Sidereal Time
21:38:14
Azimuth
Unknown
Elevation
Unknown
Doppler factor
Unknown
Orbital elements
Apogee altitude
155.11 km
Perigee altitude
148.122 km
Semi-major axis
6,529.753 km
Eccentricity
0.00054
Inclination
53.0166°
RAAN
113.8105°
Arg. of periapsis
310.6224°
True anomaly
49.4824°
Mean anomaly
49.4358°
Eccentric anomaly
49.4591°
Mean motion
4.11337 °/min
Orbital period
87.52 mins
BSTAR
0.00032808
Loading maneuver chart data...
Computing Atmospheric mass density...

Documentation

Showing up to 5 results
|